Regional Weather Roundup
Issued by NWS

Home | Current Version | Previous Version | Text Only | Print | Product List | Glossary On
Versions: 1 2 3 4 5 6 7 8 9 10 11 12 13 14 15 16 17 18 19 20 21 22 23 24 25 26 27 28 29 30 31 32 33 34 35 36 37 38 39 40 41 42 43 44 45 46 47 48 49 50
000
ASUS43 KDTX 261101
RWRMI
MICHIGAN HOURLY REGIONAL WEATHER ROUNDUP
NATIONAL WEATHER SERVICE DETROIT/PONTIAC MI
600 AM EST SUN FEB 26 2017

NOTE: "FAIR" INDICATES FEW OR NO CLOUDS BELOW 12,000 FEET WITH NO
SIGNIFICANT WEATHER AND/OR OBSTRUCTION TO VISIBILITY.

MIZ047>049-052>055-059>063-066>070-074>076-081>083-261200-
SOUTHEAST LOWER MICHIGAN

CITY           SKY/WX    TMP DP  RH WIND       PRES   REMARKS
ADRIAN         CLEAR     23  19  85 W3        30.07R
ALMA           CLEAR     22  18  83 SW3       30.01S
ANN ARBOR      CLOUDY    22  17  81 SW8       30.05R WCI  12
BAD AXE        CLEAR     23  14  67 W8        29.99R WCI  14
CARO           MOCLDY    22  17  79 SW7       30.00S WCI  14
DETROIT CITY   CLOUDY    25  17  72 NW9       30.06R WCI  15
DETROIT        CLOUDY    25  17  72 W12       30.07R WCI  14
FLINT          PTCLDY    22  15  75 SW7       30.02S WCI  13
GROSSE ILE     CLOUDY    26  18  74 W6        30.06R WCI  19
HILLSDALE      PTCLDY    21  18  86 CALM      30.02F
HOWELL         CLEAR     21  17  85 SW3       30.03S

CITY           SKY/WX    TMP DP  RH WIND       PRES   REMARKS
JACKSON        PTCLDY    22  18  85 SW6       30.03S WCI  14
LAMBERTVILLE   CLEAR     26  21  80 W3        30.08S
LANSING        CLEAR     21  15  78 SW7       30.03S WCI  12
LAPEER         FAIR      24  15  71 W6        30.02R WCI  16
MASON          CLEAR     23  19  87 CALM      30.03S
MONROE         CLEAR     25  20  82 W7        30.07R WCI  17
MT. CLEMENS    CLOUDY    24  15  67 W9        30.03R WCI  15
PONTIAC        CLOUDY    22  14  71 W7        30.01R WCI  13
PORT HOPE        N/A     25  15  66 W7        29.96R WCI  17
PORT HURON     CLOUDY    23  14  68 W5        30.03R WCI  17
TRI CITIES     CLEAR     24  18  77 SW10      30.01R WCI  14
MIDLAND        FAIR      23  16  74 SW5       29.99S WCI  17
TROY           CLOUDY    25  13  59 W7        30.06R WCI  17
SAGINAW HB     PTCLDY    25  18  74 SW7       30.01S WCI  17
$$
MIZ043>046-050>051-056>058-064>065-071>073-077>080-261200-
SOUTHWEST LOWER MICHIGAN

CITY           SKY/WX    TMP DP  RH WIND       PRES   REMARKS
BATTLE CREEK   CLEAR     20  16  84 S6        30.03S WCI  12
BENTON HARBOR  PTCLDY    24  16  71 S7        30.05S WCI  16
BIG RAPIDS     CLEAR     15  13  90 CALM      29.96S
COLDWATER      CLEAR     20  16  82 SW5       30.04S WCI  14
FREMONT        FAIR      18  16  94 CALM      29.98S
HOLLAND        PTCLDY    24  16  71 S6        30.02S WCI  17
GRAND RAPIDS   PTCLDY    23  15  71 S8        30.01R WCI  14
IONIA          FAIR      22  16  78 S7        30.00S WCI  13
KALAMAZOO      CLEAR     22  14  71 SW8       30.04R WCI  12
LUDINGTON      MOCLDY    29  20  69 W10G17    29.94F WCI  20
MARSHALL       CLEAR     21  18  86 S3        30.03S
MOUNT PLEASANT CLEAR     23  17  78 SW6       29.98S WCI  15
MUSKEGON       PTCLDY    26  17  68 S9        30.00S WCI  17
SOUTH HAVEN    MOCLDY    25  18  72 S3        30.04S
$$
MIZ016>042-261200-
NORTHERN LOWER MICHIGAN

CITY           SKY/WX    TMP DP  RH WIND       PRES   REMARKS
ALPENA         CLOUDY    23  16  74 SW8       29.92R WCI  14
BEAVER ISLAND  CLOUDY    28  22  81 SW14      29.84F WCI  16
BELLAIRE       CLEAR     21  16  81 S6        29.92S WCI  13
CADILLAC       MOCLDY    16  13  87 S6        29.90S WCI   7
CHARLEVOIX     PTCLDY    26  19  75 S5        29.91S WCI  21
FRANKFORT      CLOUDY    31  22  72 W12G18    29.91S WCI  21
GAYLORD        PTCLDY    17  11  77 S7        29.87R WCI   8
GRAYLING       CLEAR     19  14  82 SW6       29.91S WCI  10
HARBOR SPRINGS MOCLDY    21  16  79 CALM      29.88R
HOUGHTON LAKE  PTCLDY    18  13  80 SW12      29.93R WCI   5
MANISTEE       MOCLDY    23  18  81 S3        29.94S
OSCODA         PTCLDY    21  15  76 SW10      29.95S WCI  10
PELLSTON       CLEAR      4   1  88 S5        29.87  WCI  -5
TRAVERSE CITY  PTCLDY    21  14  74 S6        29.91S WCI  13
$$
MIZ007>008-015-261200-
EASTERN UPPER MICHIGAN

CITY           SKY/WX    TMP DP  RH WIND       PRES   REMARKS
KINROSS        CLEAR     15  11  83 SW5       29.82R WCI   8
MACKINAC ISLAN PTCLDY    23  18  80 SW9       29.84R WCI  13
NEWBERRY       CLOUDY    17  12  80 SW10      29.79S WCI   4
S. S. MARIE    CLEAR     17  10  74 SW9       29.80S WCI   6
MUNISING         N/A     18  11  74 S8        29.78S WCI   8
$$
MIZ004>006-011>014-085-261200-
CENTRAL UPPER MICHIGAN

CITY           SKY/WX    TMP DP  RH WIND       PRES   REMARKS
MANISTIQUE     CLEAR     21  18  90 W6        29.82S WCI  13
ESCANABA       FLURRIES  19  13  77 SW10      29.83F WCI   7
MENOMINEE      CLOUDY    19  14  81 SW9       29.86F WCI   8
SAWYER-GWINN   CLOUDY    15  12  85 S9        29.73F WCI   4
$$
MIZ001>003-009>011-084-261200-
WESTERN UPPER MICHIGAN

CITY           SKY/WX    TMP DP  RH WIND       PRES   REMARKS
IRON MOUNTAIN  CLOUDY    21  11  65 S6        29.75F WCI  13
HOUGHTON       LGT SNOW  22  18  85 S7        29.65F FOG     WCI  13
COPPER HARBOR    N/A     22  17  81 W13G22    29.66F WCI  10
IRONWOOD       FLURRIES  21  16  81 SW12G20   29.67F WCI   9
$$

ABBREVIATIONS USED IN REMARKS
   TC - TEMPERATURE IN CELSIUS
  WCI - WIND CHILL INDEX
   HX - HEAT INDEX
  VSB - VISIBILITY





USA.gov is the U.S. government's official web portal to all federal, state and local government web resources and services.